Simultaneous Nadir Overpasses (SNOs) Predictions

Prediction of SNOs between AQUA and METOP-C Satellite Orbit:

Table of predicted SNOs for the next 14.0 days since TLE Epoch: 5/17/2025
Index Date (AQUA) Time (AQUA) Lat,Lon (AQUA) SZA (AQUA ) Date (METOP-C) Time (METOP-C) Lat,Lon (METOP-C) SZA (METOP-C ) Distance(km) Time Diff (sec)
1 05/18/2025 12:39:17 -76.50, 172.63 123.23 05/18/2025 12:38:36 -76.50, 172.48 123.23 4.08 41
2 05/18/2025 13:28:37 76.55, -19.85 56.81 05/18/2025 13:29:15 76.56, -19.96 56.83 3.50 38
3 05/21/2025 01:27:39 -76.54, -19.52 123.72 05/21/2025 01:27:33 -76.55, -19.58 123.71 2.10 6
4 05/21/2025 02:16:59 76.59, 147.98 56.32 05/21/2025 02:18:12 76.61, 147.98 56.35 2.57 73
5 05/23/2025 13:26:42 76.54, -19.20 55.79 05/23/2025 13:25:50 76.54, -19.20 55.79 0.16 52
6 05/23/2025 14:16:00 -76.56, 148.38 124.19 05/23/2025 14:16:30 -76.59, 148.35 124.16 3.31 30
7 05/26/2025 02:15:01 76.56, 148.72 55.35 05/26/2025 02:14:46 76.57, 148.70 55.37 1.80 15
8 05/26/2025 03:04:20 -76.63, -43.86 124.59 05/26/2025 03:05:26 -76.63, -43.75 124.58 2.73 66
9 05/28/2025 14:14:01 -76.54, 149.07 125.07 05/28/2025 14:13:04 -76.54, 149.03 125.08 1.14 57
10 05/28/2025 15:03:21 76.61, -43.49 54.99 05/28/2025 15:03:43 76.60, -43.43 54.98 1.86 22
11 05/31/2025 03:02:20 -76.58, -43.07 125.41 05/31/2025 03:02:01 -76.57, -43.11 125.43 1.91 19



Historial Predications of SNOs between AQUA and METOP-C
